Terminal Aerodrome Forecast
Issued by NWS

Home | Current Version | Previous Version | Text Only | Print | Product List | Glossary Off
Versions: 1 2 3 4 5 6 7 8 9 10 11 12 13 14 15 16 17 18 19 20 21 22 23 24 25 26 27 28 29 30 31 32 33 34 35 36 37 38 39 40 41 42 43 44 45 46 47 48 49 50

000
FTUS43 KLOT 271500 AAC
TAFGYY
TAF AMD
KGYY 271558Z 2716/2812 30010G16KT P6SM BKN020 BKN090
      TEMPO 2716/2719 SCT020
     FM271900 31014G20KT P6SM BKN025
      TEMPO 2719/2722 SCT025
     FM272200 31011G15KT P6SM SCT025
     FM280100 29008KT P6SM SCT250
     FM280900 20005KT P6SM BKN100=

USA.gov is the U.S. government's official web portal to all federal, state and local government web resources and services.